SCP
0 0 0 0 0 0 0 0 0 1 1 1 1 1 1 1 1 2 2 2 2 2 2 2 3 3 5 8 10 12 12 11 8 6 6 5 5 6 7 7 6 5 5 5
0 0 0 0 0 0 0 0 1 1 1 1 1 1 1 1 1 2 3 3 3 2 2 2 3 4 6 8 11 12 11 9 7 6 6 6 6 6 7 7 6 5 5 4
0 0 0 0 0 1 1 1 1 1 1 1 1 1 1 2 2 2 3 3 2 2 2 2 3 4 7 9 11 11 10 8 6 6 6 7 7 6 6 6 6 5 4 4
0 0 0 0 0 1 1 1 1 1 2 2 2 2 2 2 2 3 3 3 2 3 3 3 4 5 7 9 10 9 9 8 7 7 7 8 7 6 6 6 6 6 5 4
0 0 0 0 0 0 0 1 1 2 3 3 3 2 3 3 4 5 5 5 5 5 4 4 5 5 7 9 8 8 8 8 8 8 8 8 8 7 7 7 7 7 7 6
0 0 0 0 0 0 1 1 2 3 6 6 5 4 4 6 8 9 10 10 10 9 8 7 6 6 7 7 7 7 7 7 7 8 8 8 7 7 7 8 8 8 8 8
0 0 0 1 1 1 1 2 3 4 8 10 9 7 7 10 12 12 13 13 13 13 12 10 7 7 7 7 6 6 6 6 7 8 8 8 8 8 8 8 8 9 10 10
0 0 1 1 1 2 2 2 3 5 8 11 12 12 11 12 12 13 13 13 14 14 13 10 8 7 7 7 6 5 5 5 6 7 9 10 10 10 9 9 9 10 11 12
1 1 1 1 2 1 2 2 3 4 6 8 11 13 12 12 13 12 12 12 13 13 11 9 8 8 8 7 6 5 5 5 6 7 8 9 10 11 11 10 10 11 12 13
1 1 2 1 1 1 1 2 3 3 4 5 8 10 10 11 12 12 11 11 12 12 11 9 9 9 9 8 7 6 5 5 6 7 8 9 10 11 11 11 11 11 12 12
1 1 1 1 1 1 1 1 3 4 4 4 5 7 8 8 10 10 10 11 12 13 12 11 10 11 10 9 8 6 5 5 6 8 9 10 10 10 10 10 10 9 10 10
0 1 1 1 1 1 1 1 2 4 4 3 4 7 7 7 7 8 9 10 11 12 12 11 11 11 10 8 7 6 5 6 7 9 11 12 11 9 7 7 6 6 6 7
0 0 0 1 1 1 1 1 2 3 3 3 4 6 8 8 7 8 9 10 9 9 9 10 9 8 7 6 6 6 6 6 8 9 10 11 9 7 6 5 4 3 3 3
0 0 0 0 0 1 1 1 2 3 3 3 5 7 9 10 9 9 10 9 7 6 7 7 7 6 5 5 5 6 7 7 7 7 8 8 7 6 6 5 4 3 2 2
1 1 0 0 1 1 1 1 1 2 2 4 7 10 11 11 10 9 9 8 7 6 5 6 6 5 5 5 6 6 7 7 7 6 6 6 6 5 5 4 4 4 3 3
2 2 2 2 1 1 1 2 2 2 2 4 7 10 11 10 9 7 8 8 8 6 5 5 5 6 6 6 6 6 7 7 7 7 6 5 5 5 4 3 3 3 4 4
2 2 3 3 3 3 4 4 3 3 2 3 5 7 9 9 7 6 7 8 8 7 5 5 6 7 7 7 6 6 7 8 8 7 6 5 5 4 4 4 3 3 3 3
2 2 2 2 3 4 4 5 5 4 3 3 3 4 5 6 6 5 6 7 7 7 7 7 7 7 7 6 6 7 7 7 7 6 4 4 4 4 4 4 3 3 2 2
1 1 1 1 2 2 3 3 3 4 3 3 3 3 3 4 5 5 6 6 7 6 6 6 6 6 5 5 5 5 5 5 5 4 3 3 3 4 4 4 4 3 3 2
1 1 1 1 1 1 1 1 1 2 2 2 2 2 3 3 4 5 5 6 6 4 3 3 3 3 3 3 3 3 3 3 3 3 3 3 3 4 5 4 4 3 3 3
1 1 1 1 1 1 1 1 0 1 1 1 2 2 2 2 3 3 4 4 3 2 2 2 2 2 2 2 2 2 2 2 3 4 4 4 4 4 5 5 4 3 3 3
1 1 1 1 1 1 1 0 0 1 1 1 1 1 1 1 1 2 2 2 1 1 1 1 1 1 1 2 2 2 2 2 2 3 4 4 4 4 4 4 4 3 3 3
2 2 1 2 2 1 1 1 0 1 1 1 1 1 1 1 1 1 1 1 1 1 1 1 0 0 1 1 2 2 2 2 1 1 2 4 4 4 4 3 3 3 3 3
1 2 2 2 2 1 1 1 1 1 1 1 1 0 0 0 0 0 1 1 1 1 1 1 0 0 0 1 2 2 2 1 1 1 1 3 4 4 4 3 2 2 2 2
1 1 1 1 2 1 1 1 1 0 0 0 0 0 0 0 0 1 1 1 2 2 1 1 0 0 0 0 1 2 2 1 1 1 1 2 3 4 4 3 2 1 1 0
1 1 1 1 1 1 1 1 1 0 0 0 0 0 0 0 0 1 1 1 1 1 1 1 0 0 0 0 1 1 1 1 1 1 1 2 2 3 3 2 1 1 0 0
1 1 1 1 1 1 1 1 0 0 0 0 0 0 0 0 0 1 1 1 1 1 1 0 0 0 0 0 0 1 1 1 1 1 1 1 1 1 1 1 1 0 0 0
Wind_Speed
4 5 2 2 3 3 2 6 7 6 6 7 7 7 6 5 5 5 4 4 5 6 6 6 6 7 7 7 7 7 7 7 7 6 6 5 5 5 5 5 5 4 3 3
3 3 2 3 3 3 2 3 4 3 4 6 5 4 4 5 6 6 5 5 5 5 6 7 7 7 7 7 7 7 7 7 6 6 5 5 5 5 5 4 4 3 3 3
3 4 4 4 3 1 1 2 6 6 6 3 4 6 7 7 7 7 6 6 6 6 6 7 7 7 8 7 7 7 7 7 6 6 6 5 5 5 5 4 3 3 3 3
0 3 3 8 4 1 1 2 1 2 2 4 7 6 5 6 8 7 6 6 5 5 4 4 5 5 6 6 6 7 6 6 6 6 6 5 5 5 5 4 4 4 4 3
2 1 5 6 4 1 2 3 1 4 2 3 3 5 2 2 5 7 7 6 5 5 5 4 4 5 6 5 6 6 7 6 7 7 6 6 6 6 5 4 4 4 3 4
3 2 5 7 5 2 5 2 3 3 2 2 4 3 3 2 3 4 4 4 4 4 3 4 4 5 5 5 5 6 6 6 6 6 7 7 6 5 4 4 4 4 3 4
4 4 7 7 5 3 3 5 3 1 2 2 2 4 4 2 2 3 3 3 4 4 3 3 4 5 5 4 5 5 5 5 5 6 6 6 5 4 4 4 3 3 4 4
4 3 8 5 2 2 5 3 1 3 3 4 2 2 2 3 3 3 3 2 3 4 3 2 4 5 4 5 5 3 3 4 4 4 4 4 4 4 4 4 4 4 4 4
6 7 6 2 1 2 2 3 2 3 3 4 4 3 3 3 3 3 3 2 2 4 3 2 3 4 5 4 3 4 4 4 3 3 3 3 4 5 4 4 4 4 4 4
0 3 3 2 2 3 2 2 2 4 5 5 4 3 3 3 2 2 2 2 2 3 3 2 2 3 3 3 3 4 4 3 3 3 2 2 3 3 4 4 5 4 4 4
1 3 4 5 3 2 3 4 5 4 4 5 5 3 3 2 2 2 2 1 2 3 3 2 2 2 2 3 4 3 3 3 3 3 3 2 2 2 4 5 6 6 5 4
4 5 3 4 4 2 4 4 3 4 4 3 4 4 3 2 1 2 2 2 3 3 3 2 2 2 1 2 3 3 2 2 2 2 2 2 2 1 2 3 4 5 6 5
4 3 2 2 2 3 2 3 3 2 3 2 3 3 3 2 2 2 2 2 2 3 3 2 2 1 1 2 3 2 2 2 2 2 2 2 2 2 2 3 3 3 4 4
1 1 2 2 1 1 1 2 2 3 2 3 3 3 3 2 2 2 2 1 2 3 2 2 2 1 1 2 2 1 1 2 2 2 3 3 3 3 2 2 2 2 3 4
2 1 2 1 1 1 1 2 3 2 2 2 2 2 3 2 2 1 1 2 3 3 2 2 2 1 1 2 2 1 0 1 1 1 1 2 2 2 2 3 2 2 1 2
2 1 1 1 1 1 0 1 1 0 1 1 1 1 1 2 1 1 1 2 4 3 2 2 2 2 1 2 2 1 0 1 1 1 1 1 1 1 2 2 2 2 2 3
2 2 2 2 1 1 1 1 1 1 1 1 1 1 1 1 1 1 1 1 2 2 2 2 2 1 1 2 2 1 1 1 2 1 1 1 1 2 2 2 2 2 2 3
3 4 4 4 3 2 1 1 1 1 1 1 1 1 1 2 1 1 1 0 1 1 1 1 1 1 1 1 2 2 2 2 2 2 2 2 2 2 2 2 2 2 2 2
1 2 2 2 2 1 1 1 1 1 1 1 2 2 2 1 1 1 1 1 1 1 3 2 1 1 1 1 1 1 2 2 2 2 2 2 2 1 1 1 1 1 2 1
1 1 1 0 0 1 1 1 1 1 0 1 2 1 1 1 1 1 2 0 2 3 2 1 0 0 1 1 0 1 1 2 2 1 1 1 1 1 1 1 1 1 1 1
2 2 2 1 1 1 1 1 1 1 1 1 2 2 2 2 1 2 2 1 3 2 1 1 0 0 0 1 1 0 0 0 1 1 1 1 1 1 1 1 1 1 1 0
2 2 2 2 2 2 2 1 1 1 2 2 2 2 1 1 1 1 2 3 3 1 0 1 1 0 0 0 0 0 0 0 0 0 0 0 1 1 0 0 0 0 0 0
1 1 2 2 2 3 2 2 1 2 2 3 3 3 2 2 2 2 2 2 1 1 1 1 1 0 1 1 1 1 0 0 0 0 0 0 1 1 1 1 1 1 0 0
1 2 2 2 2 2 2 2 1 0 1 1 2 2 2 1 1 1 2 2 2 2 1 1 1 0 1 1 1 0 0 0 1 1 0 1 1 1 1 1 1 1 1 0
2 2 1 2 2 2 2 1 1 1 0 0 0 0 0 1 2 2 1 2 3 3 1 1 1 1 1 1 0 0 1 1 1 1 1 1 1 1 1 1 1 1 0 1
2 1 1 1 1 1 1 1 1 0 0 0 1 1 1 1 2 1 1 0 1 1 1 0 1 1 1 1 1 1 1 0 1 1 1 1 1 1 1 1 1 1 1 2
2 2 1 2 2 1 1 0 0 0 0 1 1 1 1 1 1 1 1 1 1 1 1 1 1 1 2 2 2 1 1 1 1 2 2 2 2 1 1 2 2 2 2 2
Wind_Direction
226 240 231 249 279 294 223 185 182 212 200 208 197 179 170 161 145 139 147 153 171 180 179 179 177 180 182 182 179 180 179 187 196 196 193 191 195 197 196 196 197 189 182 187
332 326 342 318 303 301 263 180 169 164 229 223 191 158 146 153 151 157 173 179 185 186 184 183 182 179 175 177 178 171 176 188 189 186 187 192 198 197 192 195 194 182 187 193
297 320 17 303 258 258 277 205 166 193 224 179 145 168 177 174 168 174 185 187 185 185 187 191 187 179 176 178 172 171 182 189 186 183 186 189 189 184 190 193 183 184 197 198
91 24 242 248 258 186 121 297 214 159 178 163 171 187 187 175 171 181 183 182 184 182 179 188 189 183 178 167 167 175 185 190 188 185 189 190 187 191 195 190 187 195 203 209
114 197 279 293 307 341 116 324 6 123 137 135 142 85 30 208 173 175 176 172 172 173 171 166 172 173 161 165 171 178 189 194 192 189 187 187 192 199 197 189 195 204 204 206
137 168 234 253 279 301 92 342 319 106 134 139 103 102 252 233 156 143 144 150 149 142 131 144 166 158 155 168 173 187 194 195 190 188 189 192 196 196 195 192 202 205 212 215
178 210 255 257 282 28 121 224 276 105 118 103 126 194 215 164 114 124 127 137 136 130 138 165 160 149 160 172 191 198 195 190 181 187 190 191 189 184 184 191 194 204 217 227
163 192 249 283 2 135 202 210 110 89 101 104 113 96 98 116 118 108 109 117 129 127 139 165 158 152 171 196 200 182 177 180 179 185 191 189 181 188 189 189 196 213 220 234
183 213 245 287 177 243 176 128 100 97 98 106 97 93 89 93 107 116 119 121 128 133 140 155 160 158 174 200 178 161 163 179 183 183 191 187 182 190 193 192 203 216 218 231
350 286 301 355 19 6 69 110 123 115 106 99 109 110 93 87 84 91 106 125 131 124 128 148 156 159 174 168 154 149 161 179 178 178 193 204 195 195 196 200 209 217 221 229
292 294 334 344 347 2 38 57 62 70 92 106 105 100 106 104 95 91 85 88 117 133 141 154 150 149 153 151 147 147 164 179 184 187 193 208 221 221 218 218 211 210 219 218
234 248 218 263 288 3 51 49 61 68 57 71 104 105 97 100 100 92 87 85 90 101 110 117 118 122 128 135 140 150 175 187 190 200 200 201 201 281 296 262 251 228 221 213
224 244 228 262 327 15 42 38 53 84 101 94 95 106 103 103 93 92 79 86 117 134 133 130 116 109 147 146 144 165 194 203 198 199 202 205 201 209 255 305 300 263 245 235
251 58 16 340 316 355 59 41 61 65 71 98 105 104 103 102 100 102 113 152 144 130 126 120 116 167 196 152 140 157 186 218 214 206 206 209 206 215 217 222 255 276 266 247
280 214 209 242 350 2 43 62 55 44 53 59 93 112 110 108 129 163 172 147 121 117 132 137 144 222 202 137 138 146 169 264 256 234 211 206 205 211 220 222 225 240 259 265
277 318 354 5 345 277 99 84 85 36 94 88 89 129 138 137 130 123 158 139 131 145 173 168 182 217 182 150 140 144 204 270 266 234 219 216 196 208 219 220 215 221 236 247
208 244 251 271 271 242 211 186 178 207 215 166 179 144 93 95 76 49 3 176 142 175 183 180 201 212 172 163 164 181 192 229 241 243 224 216 212 219 223 220 217 222 240 240
217 222 221 221 233 232 203 192 204 211 208 200 159 117 115 146 169 189 226 124 77 22 306 209 192 193 186 181 180 186 194 207 212 225 247 244 235 226 217 210 205 216 250 244
245 239 247 242 238 190 179 186 192 203 214 168 147 171 189 196 192 181 131 79 96 269 281 273 240 215 230 226 193 201 214 222 222 230 236 243 241 234 216 203 201 215 221 234
342 316 318 353 342 166 191 212 195 186 253 148 129 136 201 227 180 143 125 162 256 248 251 266 270 232 224 254 272 228 241 225 217 220 227 224 226 230 231 230 217 218 224 232
9 13 37 34 346 301 257 242 201 201 218 191 172 192 219 229 199 163 151 239 280 272 246 232 207 220 223 265 303 354 311 216 205 215 226 227 219 213 224 238 240 230 203 192
12 14 5 352 333 305 297 290 231 204 206 203 190 183 195 211 204 192 203 216 238 239 244 304 278 220 168 345 13 13 329 336 315 266 222 203 177 169 183 176 140 152 120 135
352 340 333 318 293 280 295 293 253 199 201 207 197 190 199 213 202 185 248 258 227 214 207 259 249 115 51 47 22 340 341 352 341 339 243 197 179 160 155 151 140 131 109 83
345 335 321 320 335 341 322 307 309 165 193 209 202 182 180 194 261 248 221 216 207 207 199 197 194 125 74 60 37 9 15 34 23 351 9 82 104 114 124 127 120 118 125 100
319 318 332 1 352 309 293 315 29 43 55 316 262 186 180 200 211 234 236 203 189 175 183 201 215 220 165 118 109 111 107 96 83 48 36 59 87 102 96 89 95 107 96 76
306 299 308 301 274 289 308 9 51 308 247 332 304 271 246 238 217 214 201 144 145 158 144 94 97 127 113 101 83 76 91 74 46 61 63 55 66 76 78 72 58 63 66 69
324 334 341 343 341 342 356 25 10 300 254 200 256 280 250 218 181 163 111 79 79 83 78 72 82 93 105 107 88 74 74 84 87 86 82 68 55 45 38 51 70 78 78 70